Courtland, AL

7:41 AM CDT on October 23, 2017 (GMT -0500)
Courtland

Weather History for K9A4 - October, 2011

Change the Weather History Date:

Thursday, October 20, 2011

  Actual Average (KMSL) Record (KMSL)
Temperature  
Mean Temperature 50 °F -  
Max Temperature 59 °F 71 °F 89 °F (1911)
Min Temperature 41 °F 45 °F 28 °F (1917)
Degree Days  
Heating Degree Days 15    
Moisture  
Dew Point 36 °F    
Average Humidity 63    
Maximum Humidity 87    
Minimum Humidity 36    
Precipitation  
Precipitation 0.00 in - - ()
Sea Level Pressure  
Sea Level Pressure 29.96 in    
Wind  
Wind Speed 10 mph (West)    
Max Wind Speed 18 mph    
Max Gust Speed 24 mph    
Visibility 10 miles    
Events      
Averages and records for this station are not official NWS values.
T = Trace of Precipitation, MM = Missing Value Source: NWS Daily Summary

Daily Weather History Graph

Daily Weather History Graph

Search for Another Location

Airport or City:

Trip Planner

Search our weather history database for the weather conditions in past years. The results will help you decide how hot, cold, wet, or windy it might be!

Date:

Astronomy

Oct. 20, 2011 Rise Set
Actual Time 6:58 AM CDT 6:08 PM CDT
Civil Twilight 6:33 AM CDT 6:34 PM CDT
Nautical Twilight 6:04 AM CDT 7:03 PM CDT
Astronomical Twilight 5:34 AM CDT 7:32 PM CDT
Moon 12:00 AM CDT (10/20) 2:01 PM CDT (10/20)
Length of Visible Light 12h 01m
Length of Day
11h 09m
Last Quarter, 44% of the Moon is Illuminated
Oct 20
Last Quarter
Oct 26
New
Nov 2
First Quarter
Nov 10
Full
Nov 18
Last Quarter

Hourly Weather History & Observations

Time (CDT) Temp. Windchill Dew Point Humidity Pressure Visibility Wind Dir Wind Speed Gust Speed Precip Events Conditions
12:15 AM 46.4 °F 40.7 °F 41.0 °F 81% 29.84 in 10.0 mi West 12.7 mph 17.3 mph N/A   Overcast
12:35 AM 46.4 °F 41.1 °F 41.0 °F 81% 29.85 in 10.0 mi West 11.5 mph 17.3 mph N/A   Overcast
1:15 AM 46.4 °F 41.5 °F 39.2 °F 76% 29.85 in 10.0 mi West 10.4 mph 18.4 mph N/A   Overcast
1:35 AM 46.4 °F 41.1 °F 39.2 °F 76% 29.85 in 10.0 mi West 11.5 mph 17.3 mph N/A   Overcast
2:15 AM 44.6 °F 38.8 °F 37.4 °F 76% 29.87 in 10.0 mi West 11.5 mph 17.3 mph N/A   Overcast
2:35 AM 44.6 °F 39.2 °F 37.4 °F 76% 29.87 in 10.0 mi West 10.4 mph - N/A   Overcast
2:55 AM 44.6 °F 39.2 °F 37.4 °F 76% 29.87 in 10.0 mi West 10.4 mph 17.3 mph N/A   Overcast
3:15 AM 42.8 °F 37.0 °F 37.4 °F 81% 29.87 in 10.0 mi West 10.4 mph - N/A   Mostly Cloudy
3:35 AM 42.8 °F 37.0 °F 37.4 °F 81% 29.88 in 10.0 mi West 10.4 mph 16.1 mph N/A   Mostly Cloudy
3:55 AM 42.8 °F 37.5 °F 37.4 °F 81% 29.88 in 10.0 mi West 9.2 mph - N/A   Overcast
4:15 AM 42.8 °F 37.0 °F 37.4 °F 81% 29.88 in 10.0 mi West 10.4 mph - N/A   Overcast
4:35 AM 42.8 °F 37.0 °F 35.6 °F 76% 29.88 in 10.0 mi West 10.4 mph - N/A   Scattered Clouds
4:55 AM 41.0 °F 34.3 °F 35.6 °F 81% 29.89 in 10.0 mi West 11.5 mph - N/A   Clear
5:35 AM 41.0 °F 34.7 °F 35.6 °F 81% 29.89 in 10.0 mi West 10.4 mph - N/A   Clear
5:55 AM 41.0 °F 35.8 °F 35.6 °F 81% 29.89 in 10.0 mi West 8.1 mph - N/A   Clear
6:15 AM 41.0 °F 35.8 °F 37.4 °F 87% 29.90 in 10.0 mi WSW 8.1 mph - N/A   Mostly Cloudy
6:35 AM 41.0 °F 35.8 °F 35.6 °F 81% 29.90 in 10.0 mi WSW 8.1 mph - N/A   Overcast
6:55 AM 41.0 °F 35.2 °F 35.6 °F 81% 29.90 in 10.0 mi WSW 9.2 mph - N/A   Overcast
7:15 AM 41.0 °F 35.8 °F 35.6 °F 81% 29.91 in 10.0 mi West 8.1 mph - N/A   Mostly Cloudy
7:35 AM 41.0 °F 35.2 °F 35.6 °F 81% 29.91 in 10.0 mi West 9.2 mph - N/A   Mostly Cloudy
7:55 AM 41.0 °F 35.8 °F 35.6 °F 81% 29.93 in 10.0 mi West 8.1 mph - N/A   Scattered Clouds
8:15 AM 41.0 °F 36.4 °F 35.6 °F 81% 29.94 in 10.0 mi West 6.9 mph - N/A   Clear
8:35 AM 42.8 °F 37.5 °F 35.6 °F 76% 29.95 in 10.0 mi West 9.2 mph - N/A   Clear
8:55 AM 42.8 °F 37.5 °F 35.6 °F 76% 29.96 in 10.0 mi West 9.2 mph - N/A   Clear
9:15 AM 44.6 °F 40.2 °F 35.6 °F 71% 29.97 in 10.0 mi West 8.1 mph 16.1 mph N/A   Clear
9:35 AM 46.4 °F 41.5 °F 35.6 °F 66% 29.98 in 10.0 mi West 10.4 mph - N/A   Clear
9:55 AM 48.2 °F - 35.6 °F 62% 29.98 in 10.0 mi West 10.4 mph 17.3 mph N/A   Clear
10:15 AM 50.0 °F - 35.6 °F 58% 29.99 in 10.0 mi West 11.5 mph - N/A   Scattered Clouds
10:35 AM 50.0 °F - 35.6 °F 58% 29.99 in 10.0 mi West 11.5 mph 17.3 mph N/A   Clear
10:55 AM 51.8 °F - 35.6 °F 54% 30.00 in 10.0 mi WNW 10.4 mph 16.1 mph N/A   Clear
11:15 AM 51.8 °F - 35.6 °F 54% 29.99 in 10.0 mi West 9.2 mph - N/A   Clear
11:35 AM 53.6 °F - 35.6 °F 51% 29.99 in 10.0 mi West 10.4 mph - N/A   Clear
11:55 AM 53.6 °F - 35.6 °F 51% 29.99 in 10.0 mi WNW 9.2 mph 16.1 mph N/A   Scattered Clouds
12:15 PM 55.4 °F - 33.8 °F 44% 29.99 in 10.0 mi West 8.1 mph - N/A   Scattered Clouds
12:55 PM 53.6 °F - 33.8 °F 47% 29.99 in 10.0 mi WNW 8.1 mph - N/A   Mostly Cloudy
1:15 PM 57.2 °F - 32.0 °F 38% 29.98 in 10.0 mi West 17.3 mph 23.0 mph N/A   Mostly Cloudy
1:35 PM 59.0 °F - 32.0 °F 36% 29.98 in 10.0 mi WNW 12.7 mph 19.6 mph N/A   Mostly Cloudy
1:55 PM 59.0 °F - 33.8 °F 39% 29.97 in 10.0 mi West 12.7 mph 17.3 mph N/A   Mostly Cloudy
2:15 PM 59.0 °F - 32.0 °F 36% 29.96 in 10.0 mi West 16.1 mph 24.2 mph N/A   Scattered Clouds
2:35 PM 59.0 °F - 32.0 °F 36% 29.97 in 10.0 mi West 11.5 mph 21.9 mph N/A   Scattered Clouds
2:55 PM 59.0 °F - 32.0 °F 36% 29.97 in 10.0 mi West 10.4 mph 19.6 mph N/A   Scattered Clouds
3:15 PM 59.0 °F - 32.0 °F 36% 29.97 in 10.0 mi West 15.0 mph 23.0 mph N/A   Mostly Cloudy
3:35 PM 59.0 °F - 32.0 °F 36% 29.98 in 10.0 mi West 18.4 mph 21.9 mph N/A   Mostly Cloudy
3:55 PM 59.0 °F - 33.8 °F 39% 29.98 in 10.0 mi West 15.0 mph 24.2 mph N/A   Scattered Clouds
4:15 PM 59.0 °F - 33.8 °F 39% 29.98 in 10.0 mi West 17.3 mph 21.9 mph N/A   Clear
4:35 PM 59.0 °F - 33.8 °F 39% 29.98 in 10.0 mi West 12.7 mph 19.6 mph N/A   Clear
4:55 PM 59.0 °F - 33.8 °F 39% 29.98 in 10.0 mi WNW 11.5 mph 17.3 mph N/A   Clear
5:15 PM 59.0 °F - 33.8 °F 39% 29.98 in 10.0 mi West 9.2 mph 20.7 mph N/A   Clear
5:35 PM 57.2 °F - 33.8 °F 41% 29.99 in 10.0 mi WNW 10.4 mph 17.3 mph N/A   Clear
5:55 PM 55.4 °F - 33.8 °F 44% 30.00 in 10.0 mi West 9.2 mph - N/A   Clear
6:15 PM 55.4 °F - 33.8 °F 44% 30.01 in 10.0 mi West 8.1 mph - N/A   Clear
6:35 PM 53.6 °F - 35.6 °F 51% 30.01 in 10.0 mi West 6.9 mph - N/A   Clear
6:55 PM 50.0 °F - 35.6 °F 58% 30.02 in 10.0 mi WSW 6.9 mph - N/A   Clear
7:15 PM 48.2 °F - 35.6 °F 62% 30.03 in 10.0 mi WSW 5.8 mph - N/A   Clear
7:35 PM 46.4 °F 43.5 °F 35.6 °F 66% 30.03 in 10.0 mi WSW 5.8 mph - N/A   Clear
7:55 PM 46.4 °F 43.5 °F 37.4 °F 71% 30.04 in 10.0 mi WSW 5.8 mph - N/A   Clear
8:15 PM 44.6 °F 41.4 °F 37.4 °F 76% 30.04 in 10.0 mi WSW 5.8 mph - N/A   Clear
8:35 PM 44.6 °F 42.2 °F 37.4 °F 76% 30.05 in 10.0 mi WSW 4.6 mph - N/A   Clear
8:55 PM 44.6 °F 42.2 °F 37.4 °F 76% 30.05 in 10.0 mi WSW 4.6 mph - N/A   Clear
9:15 PM 44.6 °F 41.4 °F 35.6 °F 71% 30.06 in 10.0 mi West 5.8 mph - N/A   Clear
9:35 PM 42.8 °F 40.1 °F 35.6 °F 76% 30.07 in 10.0 mi WSW 4.6 mph - N/A   Clear
9:55 PM 44.6 °F 41.4 °F 35.6 °F 71% 30.08 in 10.0 mi West 5.8 mph - N/A   Clear
10:15 PM 46.4 °F 44.3 °F 35.6 °F 66% 30.08 in 10.0 mi West 4.6 mph - N/A   Clear
10:35 PM 44.6 °F 42.2 °F 35.6 °F 71% 30.09 in 10.0 mi WNW 4.6 mph - N/A   Clear
10:55 PM 39.2 °F - 35.6 °F 87% 30.10 in 10.0 mi Calm Calm - N/A   Clear
11:15 PM 39.2 °F - 37.4 °F 93% 30.10 in 10.0 mi Calm Calm - N/A   Clear
11:35 PM 39.2 °F - 37.4 °F 93% 30.10 in 10.0 mi Calm Calm - N/A   Clear
11:55 PM 37.4 °F 34.9 °F 35.6 °F 93% 30.10 in 10.0 mi SSW 3.5 mph - N/A   Clear